Flag for Germany Weather past 2 weeks in Neuwied, Rhineland-Palatinate, Germany

Now
45 °F

Partly sunny.


Feels Like: 37 °F
Forecast: 39 / 46 °F
Wind: 18 mph from Northwest

Location: Buechel

Current Time: Mar 31, 2015 at 3:04:22 PM

Latest Report: Mar 31, 2015 at 2:20 PM


Visibility: N/A

Pressure: 29.62 "Hg

Humidity: 81%

Dew point: 39 °F

Location of NeuwiedLocation

Historic Weather in Neuwied — Graph

°F

Neuwied temperature yesterday

Maximum temperature yesterday: 43 °F (at 3:20 AM)
Minimum temperature yesterday: 36 °F (at 2:20 PM)
Average temperature yesterday: 41 °F

Past Weeks' High & Low Weather Summary

 TemperatureHumidityPressure
High61 °F (Mar 18, 2:20 PM)100% (Mar 19, 2:20 AM)30.30 "Hg (Mar 19, 2:20 AM)
Low27 °F (Mar 23, 4:20 AM)39% (Mar 18, 2:20 PM)29.36 "Hg (Mar 31, 6:20 AM)
Average42 °F80%29.95 "Hg
* Reported Mar 16 12:20 PM — Mar 31 1:20 PM, Neuwied, Weather by CustomWeather, © 2015

Note: Actual official high and low records may vary slightly from our data, if they occured in-between our weather recording intervals... More about our weather records

Advertising

Neuwied weather history for previous 24 hours

 ConditionsComfort  
Time TempWeatherWind HumidityBarometerVisibility
1:20 PM
Tue, Mar 31
41 °FRain showers. Fog.25 mph87%29.59 "Hg2 mi
12:49 PM45 °FRain showers. Fog.18 mph81%29.56 "Hg2 mi
12:20 PM45 °FBroken clouds.21 mph87%29.56 "Hg6 mi
11:57 AM45 °FPartly sunny.21 mph87%29.53 "Hg5 mi
11:20 AM48 °FSprinkles. Partly sunny.24 mph66%29.50 "Hg6 mi
11:04 AM48 °FSprinkles. Partly sunny.17 mph76%29.50 "HgN/A
10:20 AM46 °FSprinkles. Partly sunny.25 mph82%29.47 "Hg5 mi
9:20 AM48 °FBroken clouds.23 mph76%29.45 "HgN/A
8:59 AM48 °FPartly sunny.30 mph76%29.42 "HgN/A
8:20 AM48 °FPartly sunny.29 mph76%29.42 "HgN/A
7:20 AM48 °FRain. Fog.20 mph94%29.39 "Hg1 mi
6:46 AM50 °FRain. Fog.29 mph82%29.36 "Hg2 mi
6:20 AM50 °FPassing clouds.25 mph82%29.36 "HgN/A
5:20 AM48 °FLight rain. Passing clouds.22 mph87%29.42 "HgN/A
4:20 AM46 °FLight rain. Passing clouds.22 mph93%29.47 "HgN/A
3:20 AM43 °FQuite cool.20 mph93%29.53 "Hg1 mi
2:20 AM39 °FChilly.18 mph100%29.59 "Hg1 mi
1:20 AM39 °FChilly.16 mph87%29.68 "Hg4 mi
12:20 AM39 °FChilly.15 mph81%29.71 "Hg6 mi
11:20 PM
Mon, Mar 30
39 °FChilly.14 mph70%29.77 "HgN/A
10:20 PM39 °FChilly.10 mph61%29.83 "HgN/A
9:20 PM39 °FPassing clouds.7 mph61%29.86 "HgN/A
8:20 PM41 °FScattered clouds.9 mph53%29.86 "HgN/A
7:20 PM43 °FScattered clouds.10 mph49%29.86 "HgN/A
6:20 PM43 °FScattered clouds.13 mph53%29.83 "HgN/A
5:20 PM43 °FScattered clouds.17 mph53%29.83 "HgN/A
4:20 PM41 °FBroken clouds.15 mph76%29.80 "HgN/A
3:20 PM43 °FSprinkles. Broken clouds.17 mph71%29.77 "HgN/A
Weather by CustomWeather, © 2015

See weather overviewHow to use our weather pages